SCP
0 0 0 0 0 0 -0 0 0 0 0 0 0 0 0 0 0 -0 0 0 0 -0 -0 -0 -0 -0 0 0 0 0 0 0 0 0 0 0 0 0 -0 0 0 0 -0 -0
0 0 0 0 0 0 0 0 0 0 0 0 0 0 0 0 -0 -0 0 0 -0 0 -0 -0 -0 -0 -0 -0 -0 0 0 0 0 0 0 0 0 0 -0 0 0 0 0 0
0 0 0 0 0 0 0 0 0 0 0 0 0 0 0 0 0 0 0 0 0 0 -0 -0 -0 -0 -0 -0 0 0 0 -0 0 0 0 0 0 0 0 0 0 0 0 0
0 0 0 0 0 0 0 0 0 0 0 0 0 0 0 0 0 0 0 0 0 0 0 0 0 0 0 0 0 0 0 0 0 0 0 0 0 0 0 0 0 0 0 0
0 0 0 0 0 0 0 0 0 0 0 0 0 0 0 1 1 1 1 0 0 1 0 0 0 0 0 0 0 0 0 1 0 0 0 0 0 0 0 0 0 0 0 0
0 0 0 0 1 1 1 0 1 1 1 0 0 0 0 0 0 0 0 0 0 0 0 0 0 0 0 0 0 0 0 0 0 0 0 0 0 0 0 0 0 0 0 0
0 0 0 1 1 1 0 0 1 1 1 1 1 1 0 0 0 0 0 0 0 0 0 0 0 0 0 0 0 0 0 0 0 0 0 0 0 0 0 0 0 0 0 0
0 0 0 1 1 0 1 1 1 2 1 1 0 0 0 0 0 0 0 0 0 0 0 0 0 0 0 0 0 0 0 0 0 0 0 0 0 0 0 0 0 0 0 0
0 0 1 1 2 1 1 1 1 1 1 0 0 0 0 0 0 0 0 0 0 0 0 0 0 0 0 0 0 0 0 0 0 0 0 0 0 0 0 0 0 0 0 0
0 0 1 1 1 1 1 1 1 0 0 0 0 0 0 0 0 0 0 0 0 0 0 0 0 0 0 0 0 0 0 0 0 0 0 0 0 0 0 0 0 0 0 0
0 1 1 1 1 1 1 0 0 0 0 0 0 0 0 0 0 0 0 0 0 0 0 0 0 0 0 0 0 0 0 0 0 0 0 0 0 0 0 0 0 0 0 0
1 1 2 1 1 1 1 1 0 0 0 0 0 0 0 0 0 0 0 0 0 0 0 0 0 0 0 0 0 0 0 0 0 0 0 0 0 0 0 0 0 0 0 0
1 1 1 1 1 1 1 0 0 0 0 0 0 0 0 0 0 0 0 0 0 0 0 0 0 0 0 0 0 0 0 0 0 0 0 0 0 0 0 0 0 0 0 0
0 1 1 1 1 1 1 0 0 0 0 0 0 0 0 0 0 0 0 0 0 0 0 0 0 0 0 0 0 0 0 0 0 0 0 0 0 0 0 0 0 0 0 0
0 0 0 0 1 1 1 0 0 0 0 0 0 0 0 0 0 0 0 0 0 0 0 0 0 0 0 0 0 0 0 0 0 0 0 0 0 0 0 0 0 0 0 0
0 0 0 0 0 0 0 0 0 0 0 0 0 0 0 0 0 0 0 0 0 0 0 0 0 0 0 0 0 0 0 0 0 0 0 0 0 0 0 0 0 0 0 0
0 0 0 0 0 0 0 0 0 0 0 0 0 0 0 0 0 0 0 0 0 0 0 0 0 0 0 0 0 0 0 0 0 0 0 0 0 0 0 0 0 0 0 0
0 0 0 0 0 0 0 0 0 0 0 0 0 0 0 0 0 0 0 0 0 0 0 0 0 0 0 0 0 0 0 0 0 0 0 0 0 0 0 0 0 0 0 0
0 0 0 0 0 0 0 0 0 0 0 0 0 0 0 0 0 0 0 0 0 0 0 0 0 0 0 0 0 0 0 0 0 0 0 0 0 0 0 0 0 0 0 0
0 0 0 0 0 0 0 0 0 0 0 0 0 0 0 0 0 0 0 0 0 0 0 0 0 0 0 0 0 0 0 0 0 0 0 0 0 0 0 0 0 0 0 0
0 0 0 0 0 0 0 0 0 0 0 0 0 0 0 0 0 0 0 0 0 0 0 0 0 0 0 0 0 0 0 0 0 0 0 0 0 0 0 0 0 0 0 0
0 0 0 0 0 0 0 0 0 0 0 0 0 0 0 0 0 0 0 0 0 0 0 0 0 0 0 0 0 0 0 0 0 0 0 0 0 0 0 0 0 0 0 0
0 0 0 0 0 0 0 0 0 0 0 0 0 0 0 0 0 0 0 0 0 0 0 0 0 0 0 0 0 0 0 0 0 0 0 0 0 0 0 0 0 0 0 0
0 0 0 0 0 0 0 0 0 0 0 0 0 0 0 0 0 0 0 0 0 0 0 0 0 0 0 0 0 0 0 0 0 0 0 0 0 0 0 0 0 0 0 0
0 0 0 0 0 0 0 0 0 0 0 0 0 0 0 0 0 0 0 0 0 0 0 0 0 0 0 0 0 0 0 0 0 0 0 0 0 0 0 0 0 0 0 0
0 0 0 0 0 0 0 0 0 0 0 0 0 0 0 0 0 0 0 0 0 0 0 0 0 0 0 0 -0 -0 0 0 0 0 0 0 0 0 0 0 0 0 0 0
-0 0 0 0 0 0 0 0 0 0 0 0 0 0 0 0 0 0 0 0 0 0 0 0 -0 -0 -0 0 0 0 0 0 0 0 0 0 0 0 0 0 0 0 0 0
Wind_Speed_500mb
19 12 14 20 15 25 30 35 12 14 5 9 11 13 13 21 34 35 34 36 40 38 38 33 26 28 24 18 20 18 15 12 11 9 6 3 7 6 7 7 10 13 16 19
20 10 13 18 22 21 28 25 19 22 18 16 9 10 8 20 39 43 36 37 44 42 36 33 29 24 22 19 16 16 15 14 12 11 8 2 2 3 3 2 5 9 12 14
23 10 15 21 24 23 28 25 24 27 7 11 7 12 6 13 31 36 38 38 42 40 34 32 30 25 21 19 16 15 15 18 18 16 15 9 6 5 5 5 2 5 8 11
19 10 27 9 5 11 17 16 16 16 5 9 8 9 9 4 25 27 32 39 38 37 33 29 26 28 28 21 21 20 21 22 22 21 27 20 14 12 12 11 7 3 4 9
19 23 26 11 9 12 16 25 15 13 4 2 3 10 6 8 15 22 25 33 37 36 33 29 33 30 29 28 23 17 18 25 28 27 39 30 24 19 17 15 11 8 8 9
14 29 35 25 17 3 6 21 18 6 7 9 8 17 8 16 24 30 38 42 42 41 36 31 27 25 23 21 22 23 25 33 37 37 48 33 34 28 22 20 17 14 10 10
25 23 19 15 9 8 19 3 8 9 9 9 10 12 8 17 20 24 26 31 32 32 26 24 23 20 12 14 16 16 18 21 25 33 40 37 39 35 29 23 21 16 15 15
26 29 31 14 12 14 9 5 10 10 13 7 7 12 15 14 14 18 21 23 19 21 23 22 19 17 15 14 12 13 15 14 15 22 28 34 41 40 33 27 25 25 21 18
14 15 12 7 3 5 5 6 11 10 10 7 13 10 10 11 12 14 18 22 22 18 19 19 16 17 17 13 11 9 5 2 7 14 25 34 37 41 34 33 29 26 21 18
5 14 7 5 2 2 5 4 6 3 2 6 6 7 8 11 14 18 13 18 13 12 14 16 17 16 13 13 11 9 10 7 7 7 12 17 24 24 20 23 19 17 14 15
12 8 5 5 4 3 3 6 5 4 7 9 5 11 15 16 13 9 14 11 10 15 17 17 16 13 14 14 15 14 12 9 9 10 10 13 16 17 14 17 17 15 14 13
3 16 10 13 9 4 4 4 6 10 9 7 11 14 14 13 11 8 12 15 22 20 19 18 18 18 20 20 19 17 17 17 19 21 21 19 15 16 18 15 14 10 8 7
11 20 9 6 6 6 2 2 6 8 8 9 11 13 14 11 10 13 15 16 18 20 20 21 22 21 24 23 22 22 25 28 28 27 26 24 21 18 14 14 11 10 9 10
10 10 4 4 5 6 5 3 9 7 6 9 10 11 15 18 20 18 19 19 21 22 24 21 21 23 23 22 26 29 32 32 24 22 20 20 18 17 15 14 10 10 11 13
11 9 9 8 6 2 2 5 11 13 15 17 17 17 17 18 19 19 21 23 21 24 24 22 23 28 30 32 34 35 29 28 28 27 24 25 22 19 16 14 12 11 11 13
19 16 9 7 3 1 2 5 8 13 17 19 18 17 17 19 20 20 22 22 22 21 22 22 24 28 31 32 33 32 36 41 32 29 26 22 21 19 16 15 12 8 7 8
15 12 9 10 2 3 2 5 8 14 17 19 20 20 19 21 23 22 22 22 25 26 24 23 28 33 37 41 33 34 34 31 30 21 17 15 13 11 10 9 8 5 5 13
20 19 17 19 16 10 8 7 10 14 17 19 21 21 24 26 25 24 27 26 26 25 23 27 34 40 36 34 29 26 22 18 15 12 8 5 3 1 1 2 2 2 3 8
26 28 25 22 21 19 15 13 15 14 14 20 22 22 27 25 26 28 27 24 25 28 30 33 41 38 37 31 26 18 15 11 6 2 1 7 10 10 13 12 10 10 9 11
27 28 28 28 25 26 23 19 21 19 21 23 23 26 31 29 30 31 30 26 25 27 40 42 35 28 25 28 22 12 10 7 6 8 11 12 15 17 18 21 20 17 17 17
28 29 26 27 27 26 28 25 25 27 25 27 28 28 30 31 34 37 36 31 28 35 33 38 25 19 17 15 15 10 11 11 10 11 12 21 20 20 19 17 22 24 22 24
26 27 24 24 23 24 25 24 27 29 33 33 28 26 31 33 37 33 26 24 29 41 31 27 22 26 18 17 11 8 7 2 8 12 15 18 20 21 20 18 17 17 21 25
27 19 16 16 24 26 24 24 26 33 36 33 32 29 28 29 34 32 30 29 31 39 28 25 28 25 23 14 11 6 1 13 16 19 21 19 17 13 10 9 10 14 19 23
13 19 25 28 29 28 28 24 25 38 39 37 33 35 34 32 28 23 29 38 36 36 29 30 33 31 29 24 14 4 8 14 13 13 14 13 10 11 13 16 19 22 24 26
32 33 32 32 34 31 26 30 33 37 39 37 33 25 19 33 32 29 33 35 31 23 24 31 29 22 15 13 19 15 6 5 4 8 12 12 13 14 17 20 22 24 26 26
37 36 36 39 44 40 39 38 41 37 34 31 25 23 23 29 25 32 32 25 22 20 17 13 6 9 14 15 4 6 9 10 11 13 13 15 16 18 20 22 23 24 24 25
36 34 32 31 32 33 31 28 35 40 38 40 38 37 39 42 39 36 26 20 16 17 23 24 20 7 6 1 2 4 5 6 10 4 8 10 13 14 15 17 17 15 14 18
Wind_Direction_500mb
257 267 254 273 218 205 217 236 266 300 219 299 34 15 339 181 164 164 158 168 173 170 169 171 174 170 162 150 165 173 168 173 178 162 150 13 14 39 42 31 56 63 65 71
254 207 235 239 240 232 207 238 263 272 270 52 33 33 34 171 176 175 173 173 174 174 178 175 179 175 164 166 170 186 175 187 201 185 192 230 36 60 50 61 62 60 70 80
248 178 231 240 244 237 238 241 251 256 256 27 4 24 42 190 190 190 182 182 178 178 175 179 172 174 176 182 188 201 203 208 207 206 211 229 224 189 180 201 138 103 110 100
257 190 234 258 27 290 269 252 249 267 350 4 8 79 60 170 188 191 182 174 176 175 171 169 170 175 188 192 203 208 217 225 226 217 236 234 230 224 207 207 200 180 135 112
245 231 248 192 214 237 237 249 211 247 243 2 127 178 102 102 171 178 173 170 169 164 166 170 190 200 213 226 222 208 220 229 231 232 244 235 234 227 216 224 225 199 167 147
214 248 248 249 111 104 301 245 172 254 300 294 226 264 70 143 151 157 173 175 176 175 179 185 190 199 215 224 220 230 246 239 229 231 248 250 236 235 227 225 216 220 197 184
228 238 255 111 123 164 220 226 22 356 1 330 304 5 130 148 157 167 171 175 172 178 189 197 198 207 221 218 227 241 252 254 245 237 245 244 236 232 224 216 214 209 210 206
233 237 234 143 141 238 22 43 25 21 22 31 73 96 128 140 152 143 140 147 154 169 183 189 195 212 205 227 230 246 255 252 234 232 238 238 235 230 217 219 208 213 207 203
232 229 97 147 24 27 347 326 360 7 19 93 101 106 139 153 145 128 130 142 162 182 194 196 201 205 200 200 214 225 231 199 198 223 231 232 227 217 208 209 221 207 211 200
248 164 154 126 99 14 356 335 326 342 56 110 101 137 141 139 143 186 182 170 166 192 199 199 192 192 186 172 168 141 128 134 175 202 216 226 217 202 208 216 218 203 192 194
229 120 238 149 52 37 33 50 59 118 140 142 144 147 152 166 173 189 187 235 193 187 183 177 172 168 146 135 128 131 134 144 144 139 146 170 180 179 198 185 172 183 184 187
25 31 328 58 25 31 41 56 112 130 125 147 157 153 158 158 159 166 176 182 168 183 169 161 150 144 133 130 132 142 141 140 130 122 122 125 134 147 148 163 168 165 177 196
335 330 324 339 39 30 26 156 145 151 144 134 148 164 171 173 179 192 154 142 148 151 150 145 143 141 137 129 133 134 131 128 121 117 112 110 106 106 122 124 134 151 168 169
334 342 165 40 22 40 45 93 171 187 173 170 173 154 148 150 134 138 138 148 142 143 139 139 141 142 139 139 140 136 131 116 109 114 117 114 113 110 106 108 112 136 156 161
358 322 282 306 338 360 100 139 144 139 133 129 129 130 132 138 138 148 146 137 136 136 130 129 133 139 142 142 133 125 116 119 119 115 116 114 109 108 108 111 124 140 148 167
308 314 264 260 328 301 215 190 186 165 153 146 140 141 141 142 139 136 137 138 140 144 147 141 141 141 136 135 128 125 127 124 117 113 107 107 104 99 94 90 91 119 153 181
304 286 211 217 60 340 273 209 192 175 163 157 155 150 147 149 145 141 147 147 155 148 144 143 147 142 139 132 127 128 129 121 126 114 112 107 101 93 86 80 72 83 168 194
276 273 273 266 280 289 287 223 187 182 173 172 162 157 155 158 156 157 157 153 150 142 146 149 144 142 140 137 137 137 137 132 129 125 123 103 92 31 311 284 289 292 245 240
273 272 271 266 259 263 255 229 209 184 167 175 167 167 161 160 162 166 159 154 156 152 151 151 149 145 149 153 142 149 153 151 148 140 315 280 282 264 263 261 259 260 255 248
275 268 262 257 254 253 244 230 217 196 185 176 170 168 160 161 161 158 157 155 157 165 156 153 148 151 157 164 159 166 184 190 229 272 285 289 286 281 261 254 250 261 262 256
279 274 263 251 249 251 224 215 205 196 187 182 175 174 167 164 162 156 157 155 161 168 159 162 151 159 159 186 200 207 233 247 262 281 304 308 300 299 288 270 256 253 252 261
284 272 262 254 241 210 203 201 196 192 182 176 172 171 166 165 163 154 162 168 165 160 162 162 164 170 174 146 157 174 200 347 319 306 299 297 305 300 287 279 271 268 270 273
281 271 249 203 183 180 176 172 178 174 163 163 160 160 163 165 158 157 157 162 164 163 163 168 185 187 193 181 155 115 307 301 320 308 309 304 305 308 308 294 283 289 292 293
190 174 160 151 154 157 157 160 158 160 163 161 159 162 172 160 147 153 178 163 165 156 163 187 197 203 197 195 205 217 51 28 7 343 339 343 312 302 303 300 298 297 299 303
126 123 124 128 123 118 130 142 152 157 156 153 156 159 180 186 172 157 159 159 164 183 195 186 191 189 167 114 77 59 22 342 320 354 343 332 325 320 316 312 308 305 304 303
113 111 113 114 110 109 121 124 123 131 134 130 130 147 173 166 159 156 153 154 155 154 144 110 126 129 103 80 45 295 288 277 293 306 315 315 318 320 314 313 312 309 308 309
107 113 118 123 119 118 116 116 129 126 127 126 123 115 117 122 127 121 114 114 125 137 114 113 109 78 318 220 36 17 2 307 280 319 330 329 329 323 322 321 321 318 321 321
Wind_Speed_850mb
19 12 14 20 15 25 30 35 12 14 5 9 11 13 13 21 34 35 34 36 40 38 38 33 26 28 24 18 20 18 15 12 11 9 6 3 7 6 7 7 10 13 16 19
20 10 13 18 22 21 28 25 19 22 18 16 9 10 8 20 39 43 36 37 44 42 36 33 29 24 22 19 16 16 15 14 12 11 8 2 2 3 3 2 5 9 12 14
23 10 15 21 24 23 28 25 24 27 7 11 7 12 6 13 31 36 38 38 42 40 34 32 30 25 21 19 16 15 15 18 18 16 15 9 6 5 5 5 2 5 8 11
19 10 27 9 5 11 17 16 16 16 5 9 8 9 9 4 25 27 32 39 38 37 33 29 26 28 28 21 21 20 21 22 22 21 27 20 14 12 12 11 7 3 4 9
19 23 26 11 9 12 16 25 15 13 4 2 3 10 6 8 15 22 25 33 37 36 33 29 33 30 29 28 23 17 18 25 28 27 39 30 24 19 17 15 11 8 8 9
14 29 35 25 17 3 6 21 18 6 7 9 8 17 8 16 24 30 38 42 42 41 36 31 27 25 23 21 22 23 25 33 37 37 48 33 34 28 22 20 17 14 10 10
25 23 19 15 9 8 19 3 8 9 9 9 10 12 8 17 20 24 26 31 32 32 26 24 23 20 12 14 16 16 18 21 25 33 40 37 39 35 29 23 21 16 15 15
26 29 31 14 12 14 9 5 10 10 13 7 7 12 15 14 14 18 21 23 19 21 23 22 19 17 15 14 12 13 15 14 15 22 28 34 41 40 33 27 25 25 21 18
14 15 12 7 3 5 5 6 11 10 10 7 13 10 10 11 12 14 18 22 22 18 19 19 16 17 17 13 11 9 5 2 7 14 25 34 37 41 34 33 29 26 21 18
5 14 7 5 2 2 5 4 6 3 2 6 6 7 8 11 14 18 13 18 13 12 14 16 17 16 13 13 11 9 10 7 7 7 12 17 24 24 20 23 19 17 14 15
12 8 5 5 4 3 3 6 5 4 7 9 5 11 15 16 13 9 14 11 10 15 17 17 16 13 14 14 15 14 12 9 9 10 10 13 16 17 14 17 17 15 14 13
3 16 10 13 9 4 4 4 6 10 9 7 11 14 14 13 11 8 12 15 22 20 19 18 18 18 20 20 19 17 17 17 19 21 21 19 15 16 18 15 14 10 8 7
11 20 9 6 6 6 2 2 6 8 8 9 11 13 14 11 10 13 15 16 18 20 20 21 22 21 24 23 22 22 25 28 28 27 26 24 21 18 14 14 11 10 9 10
10 10 4 4 5 6 5 3 9 7 6 9 10 11 15 18 20 18 19 19 21 22 24 21 21 23 23 22 26 29 32 32 24 22 20 20 18 17 15 14 10 10 11 13
11 9 9 8 6 2 2 5 11 13 15 17 17 17 17 18 19 19 21 23 21 24 24 22 23 28 30 32 34 35 29 28 28 27 24 25 22 19 16 14 12 11 11 13
19 16 9 7 3 1 2 5 8 13 17 19 18 17 17 19 20 20 22 22 22 21 22 22 24 28 31 32 33 32 36 41 32 29 26 22 21 19 16 15 12 8 7 8
15 12 9 10 2 3 2 5 8 14 17 19 20 20 19 21 23 22 22 22 25 26 24 23 28 33 37 41 33 34 34 31 30 21 17 15 13 11 10 9 8 5 5 13
20 19 17 19 16 10 8 7 10 14 17 19 21 21 24 26 25 24 27 26 26 25 23 27 34 40 36 34 29 26 22 18 15 12 8 5 3 1 1 2 2 2 3 8
26 28 25 22 21 19 15 13 15 14 14 20 22 22 27 25 26 28 27 24 25 28 30 33 41 38 37 31 26 18 15 11 6 2 1 7 10 10 13 12 10 10 9 11
27 28 28 28 25 26 23 19 21 19 21 23 23 26 31 29 30 31 30 26 25 27 40 42 35 28 25 28 22 12 10 7 6 8 11 12 15 17 18 21 20 17 17 17
28 29 26 27 27 26 28 25 25 27 25 27 28 28 30 31 34 37 36 31 28 35 33 38 25 19 17 15 15 10 11 11 10 11 12 21 20 20 19 17 22 24 22 24
26 27 24 24 23 24 25 24 27 29 33 33 28 26 31 33 37 33 26 24 29 41 31 27 22 26 18 17 11 8 7 2 8 12 15 18 20 21 20 18 17 17 21 25
27 19 16 16 24 26 24 24 26 33 36 33 32 29 28 29 34 32 30 29 31 39 28 25 28 25 23 14 11 6 1 13 16 19 21 19 17 13 10 9 10 14 19 23
13 19 25 28 29 28 28 24 25 38 39 37 33 35 34 32 28 23 29 38 36 36 29 30 33 31 29 24 14 4 8 14 13 13 14 13 10 11 13 16 19 22 24 26
32 33 32 32 34 31 26 30 33 37 39 37 33 25 19 33 32 29 33 35 31 23 24 31 29 22 15 13 19 15 6 5 4 8 12 12 13 14 17 20 22 24 26 26
37 36 36 39 44 40 39 38 41 37 34 31 25 23 23 29 25 32 32 25 22 20 17 13 6 9 14 15 4 6 9 10 11 13 13 15 16 18 20 22 23 24 24 25
36 34 32 31 32 33 31 28 35 40 38 40 38 37 39 42 39 36 26 20 16 17 23 24 20 7 6 1 2 4 5 6 10 4 8 10 13 14 15 17 17 15 14 18
Wind_Direction_850mb
257 267 254 273 218 205 217 236 266 300 219 299 34 15 339 181 164 164 158 168 173 170 169 171 174 170 162 150 165 173 168 173 178 162 150 13 14 39 42 31 56 63 65 71
254 207 235 239 240 232 207 238 263 272 270 52 33 33 34 171 176 175 173 173 174 174 178 175 179 175 164 166 170 186 175 187 201 185 192 230 36 60 50 61 62 60 70 80
248 178 231 240 244 237 238 241 251 256 256 27 4 24 42 190 190 190 182 182 178 178 175 179 172 174 176 182 188 201 203 208 207 206 211 229 224 189 180 201 138 103 110 100
257 190 234 258 27 290 269 252 249 267 350 4 8 79 60 170 188 191 182 174 176 175 171 169 170 175 188 192 203 208 217 225 226 217 236 234 230 224 207 207 200 180 135 112
245 231 248 192 214 237 237 249 211 247 243 2 127 178 102 102 171 178 173 170 169 164 166 170 190 200 213 226 222 208 220 229 231 232 244 235 234 227 216 224 225 199 167 147
214 248 248 249 111 104 301 245 172 254 300 294 226 264 70 143 151 157 173 175 176 175 179 185 190 199 215 224 220 230 246 239 229 231 248 250 236 235 227 225 216 220 197 184
228 238 255 111 123 164 220 226 22 356 1 330 304 5 130 148 157 167 171 175 172 178 189 197 198 207 221 218 227 241 252 254 245 237 245 244 236 232 224 216 214 209 210 206
233 237 234 143 141 238 22 43 25 21 22 31 73 96 128 140 152 143 140 147 154 169 183 189 195 212 205 227 230 246 255 252 234 232 238 238 235 230 217 219 208 213 207 203
232 229 97 147 24 27 347 326 360 7 19 93 101 106 139 153 145 128 130 142 162 182 194 196 201 205 200 200 214 225 231 199 198 223 231 232 227 217 208 209 221 207 211 200
248 164 154 126 99 14 356 335 326 342 56 110 101 137 141 139 143 186 182 170 166 192 199 199 192 192 186 172 168 141 128 134 175 202 216 226 217 202 208 216 218 203 192 194
229 120 238 149 52 37 33 50 59 118 140 142 144 147 152 166 173 189 187 235 193 187 183 177 172 168 146 135 128 131 134 144 144 139 146 170 180 179 198 185 172 183 184 187
25 31 328 58 25 31 41 56 112 130 125 147 157 153 158 158 159 166 176 182 168 183 169 161 150 144 133 130 132 142 141 140 130 122 122 125 134 147 148 163 168 165 177 196
335 330 324 339 39 30 26 156 145 151 144 134 148 164 171 173 179 192 154 142 148 151 150 145 143 141 137 129 133 134 131 128 121 117 112 110 106 106 122 124 134 151 168 169
334 342 165 40 22 40 45 93 171 187 173 170 173 154 148 150 134 138 138 148 142 143 139 139 141 142 139 139 140 136 131 116 109 114 117 114 113 110 106 108 112 136 156 161
358 322 282 306 338 360 100 139 144 139 133 129 129 130 132 138 138 148 146 137 136 136 130 129 133 139 142 142 133 125 116 119 119 115 116 114 109 108 108 111 124 140 148 167
308 314 264 260 328 301 215 190 186 165 153 146 140 141 141 142 139 136 137 138 140 144 147 141 141 141 136 135 128 125 127 124 117 113 107 107 104 99 94 90 91 119 153 181
304 286 211 217 60 340 273 209 192 175 163 157 155 150 147 149 145 141 147 147 155 148 144 143 147 142 139 132 127 128 129 121 126 114 112 107 101 93 86 80 72 83 168 194
276 273 273 266 280 289 287 223 187 182 173 172 162 157 155 158 156 157 157 153 150 142 146 149 144 142 140 137 137 137 137 132 129 125 123 103 92 31 311 284 289 292 245 240
273 272 271 266 259 263 255 229 209 184 167 175 167 167 161 160 162 166 159 154 156 152 151 151 149 145 149 153 142 149 153 151 148 140 315 280 282 264 263 261 259 260 255 248
275 268 262 257 254 253 244 230 217 196 185 176 170 168 160 161 161 158 157 155 157 165 156 153 148 151 157 164 159 166 184 190 229 272 285 289 286 281 261 254 250 261 262 256
279 274 263 251 249 251 224 215 205 196 187 182 175 174 167 164 162 156 157 155 161 168 159 162 151 159 159 186 200 207 233 247 262 281 304 308 300 299 288 270 256 253 252 261
284 272 262 254 241 210 203 201 196 192 182 176 172 171 166 165 163 154 162 168 165 160 162 162 164 170 174 146 157 174 200 347 319 306 299 297 305 300 287 279 271 268 270 273
281 271 249 203 183 180 176 172 178 174 163 163 160 160 163 165 158 157 157 162 164 163 163 168 185 187 193 181 155 115 307 301 320 308 309 304 305 308 308 294 283 289 292 293
190 174 160 151 154 157 157 160 158 160 163 161 159 162 172 160 147 153 178 163 165 156 163 187 197 203 197 195 205 217 51 28 7 343 339 343 312 302 303 300 298 297 299 303
126 123 124 128 123 118 130 142 152 157 156 153 156 159 180 186 172 157 159 159 164 183 195 186 191 189 167 114 77 59 22 342 320 354 343 332 325 320 316 312 308 305 304 303
113 111 113 114 110 109 121 124 123 131 134 130 130 147 173 166 159 156 153 154 155 154 144 110 126 129 103 80 45 295 288 277 293 306 315 315 318 320 314 313 312 309 308 309
107 113 118 123 119 118 116 116 129 126 127 126 123 115 117 122 127 121 114 114 125 137 114 113 109 78 318 220 36 17 2 307 280 319 330 329 329 323 322 321 321 318 321 321